[Date Prev][Date Next][Thread Prev][Thread Next] - [Date Index][Thread Index][Author Index]
2 Line ISS Keps 2-21
- Subject: [sarex] 2 Line ISS Keps 2-21
- From: "Dave Larsen PhD" <doc@xxxxxxxxxxx>
- Date: Thu, 21 Feb 2002 01:37:59 -0800
ISS
1 25544U 98067A 02052.16770833 .00060784 00000-0 67684-3 0 994
2 25544 51.6381 276.0262 0004664 98.9478 36.9983 15.62243875185933
----
Via the sarex mailing list at AMSAT.ORG courtesy of AMSAT-NA.
To unsubscribe, send "unsubscribe sarex" to Majordomo@amsat.org
AMSAT Home